Location: Felsheim
(48.7267°N, 10.7386°E)
Time: 13:15:28
(UTC+00:00)

USA 234 - Pass Details

Date: 09 April 2020
Orbit: 1102 x 1106 km, 123.0° (Epoch: 14 May)

Event Time Altitude Azimuth Distance (km) Brightness Sun altitude
Rises 23:16:35 0° 65° (ENE) 3,924 6.5 -33.2°
Reaches altitude 10° 23:19:09 10° 59° (ENE) 2,965 5.8 -33.2°
Maximum altitude 23:25:21 47° 349° (N) 1,428 4.1 -33.2°
Drops below altitude 10° 23:31:32 10° 278° (W) 2,964 5.5 -33.2°
Sets 23:34:06 0° 273° (W) 3,921 6.1 -33.1°
